Location: Oshawa
(43.9000°N, 78.8670°W)
Time: 07:00:52
(UTC-05:00)

Envisat - Visible Passes

Search period start: 19 February 2018 00:00
Search period end: 01 March 2018 00:00
Orbit: 764 x 766 km, 98.2° (Epoch: 19 February)

Date Brightness Start Highest point End Pass type
(mag) Time Alt. Az. Time Alt. Az. Time Alt. Az.
19 Feb 4.2 18:31:16 10° ESE 18:35:05 22° ENE 18:38:55 10° NNE visible
19 Feb 3.8 20:08:50 10° S 20:13:45 51° W 20:18:43 10° NNW visible
20 Feb 2.9 19:31:56 10° SSE 19:36:59 75° ENE 19:42:05 10° N visible
20 Feb 5.8 21:14:05 10° WSW 21:16:35 14° W 21:19:05 10° WNW visible
21 Feb 3.6 18:55:51 10° SE 19:00:26 36° ENE 19:05:03 10° N visible
21 Feb 4.8 20:35:04 10° SSW 20:39:29 29° W 20:43:55 10° NW visible
22 Feb 4.4 18:20:44 10° ESE 18:24:04 18° ENE 18:27:26 10° NNE visible
22 Feb 3.4 19:57:33 10° S 20:02:35 64° W 20:07:39 10° NNW visible
23 Feb 3.0 19:20:54 10° SSE 19:25:53 60° ENE 19:30:54 10° N visible
23 Feb 5.6 21:02:00 10° SW 21:05:19 17° W 21:08:38 10° NW visible
24 Feb 3.8 18:45:04 10° SE 18:49:23 29° ENE 18:53:43 10° N visible
24 Feb 4.4 20:23:36 10° SSW 20:28:16 37° W 20:32:59 10° NNW visible
25 Feb 3.0 19:46:21 10° S 19:51:26 80° WSW 19:56:33 10° NNW visible
26 Feb 3.2 19:09:57 10° SE 19:14:48 48° ENE 19:19:41 10° N visible
26 Feb 5.3 20:50:12 10° SW 20:54:03 22° W 20:57:56 10° NW visible
27 Feb 4.1 18:34:22 10° ESE 18:38:21 24° ENE 18:42:21 10° NNE visible
27 Feb 4.0 20:12:13 10° S 20:17:05 46° W 20:21:59 10° NNW visible
28 Feb 2.9 19:35:14 10° SSE 19:40:18 82° ENE 19:45:25 10° NNW visible
28 Feb 5.9 21:17:54 10° WSW 21:19:57 12° W 21:22:00 10° WNW visible
